YO8RXT-3 Weather Reports


time (UTC)temp
C
wind
direction
speed
KPH
gust
KPH
rain 1hr
cm
rain 24hr
cm
rain mn
cm
humidity
%
barometer
mb
20260506043502 12 110 12.9 0.0 0.00 0.00 0.00 58 1014.0
20260506040503 11 100 12.9 0.0 0.00 0.00 0.00 62 1014.0
20260506033503 10 100 12.9 0.0 0.00 0.00 0.00 62 1014.0
20260506030502 8 110 12.9 0.0 0.00 0.00 0.00 66 1014.0
20260506023503 10 110 11.3 0.0 0.00 0.00 0.00 62 1013.0
20260506020503 10 110 9.7 0.0 0.00 0.00 0.00 62 1013.0
20260506013503 11 110 11.3 0.0 0.00 0.00 0.00 58 1013.0
20260506010503 11 120 12.9 0.0 0.00 0.00 0.00 62 1013.0
20260506003502 11 120 12.9 0.0 0.00 0.00 0.00 67 1013.0
20260506000502 11 120 14.5 0.0 0.00 0.00 0.00 72 1013.0
20260505233503 12 110 16.1 0.0 0.00 0.00 0.00 67 1013.0
20260505230502 12 110 17.7 0.0 0.00 0.00 0.00 67 1013.0
20260505223503 12 110 17.7 0.0 0.00 0.00 0.00 63 1013.0
20260505220503 13 110 17.7 0.0 0.00 0.00 0.00 59 1013.0
20260505213503 13 100 14.5 0.0 0.00 0.00 0.00 59 1013.0
20260505210503 16 90 9.7 0.0 0.00 0.00 0.00 52 1013.0
20260505203502 17 130 4.8 0.0 0.00 0.00 0.00 43 1013.0
20260505200501 18 3.2 0.0 0.00 0.00 0.00 40 1013.0
20260505193502 20 230 4.8 0.0 0.00 0.00 0.00 38 1012.0
20260505190502 20 180 11.3 0.0 0.00 0.00 0.00 38 1012.0
20260505183503 21 180 11.3 0.0 0.00 0.00 0.00 35 1012.0
20260505180501 22 180 8.0 0.0 0.00 0.00 0.00 33 1012.0
20260505173502 22 150 9.7 0.0 0.00 0.00 0.00 31 1012.0
20260505170503 23 120 9.7 0.0 0.00 0.00 0.00 27 1012.0
20260505163503 23 140 9.7 0.0 0.00 0.00 0.00 27 1012.0
20260505160502 25 110 9.7 0.0 0.00 0.00 0.00
20260505150502 26 3.2 0.0 0.00 0.00 0.00 20 1012.0
20260505140502 26 50 9.7 0.0 0.00 0.00 0.00 24 1012.0
20260505123502 26 120 9.7 0.0 0.00 0.00 0.00 23 1013.0
20260505120502 26 150 9.7 0.0 0.00 0.00 0.00 26 1013.0
20260505113502 25 9.7 0.0 0.00 0.00 0.00 24 1014.0
20260505110502 25 140 9.7 0.0 0.00 0.00 0.00 28 1014.0
20260505100502 23 8.0 0.0 0.00 0.00 0.00 29 1014.0
20260505093503 23 8.0 0.0 0.00 0.00 0.00 31 1015.0
20260505090503 22 170 4.8 0.0 0.00 0.00 0.00 36 1015.0
20260505083503 22 3.2 0.0 0.00 0.00 0.00 36 1015.0
20260505080502 21 3.2 0.0 0.00 0.00 0.00 35 1015.0
20260505073503 18 110 9.7 0.0 0.00 0.00 0.00 43 1015.0
20260505070503 17 110 8.0 0.0 0.00 0.00 0.00 46 1015.0
20260505063503 16 90 9.7 0.0 0.00 0.00 0.00 52 1015.0
20260505060503 15 90 9.7 0.0 0.00 0.00 0.00 51 1015.0
20260505053502 13 100 9.7 0.0 0.00 0.00 0.00 55 1015.0
20260505050503 12 90 8.0 0.0 0.00 0.00 0.00 55 1015.0